This is the latest recevied weather packets stored in our database for station/object W0AKO. If no packets are shown the sender has not sent any weather packets the latest 10 day(s).
| Time | Temp. | Humidity | Pressure | Rain* | Wind** | Luminosity | Snow |
|---|---|---|---|---|---|---|---|
| 1777417130 | 23.89° C | 10% | 1016.9 hPa | 0 mm | - | 494 W/m² | - |
| 1777416826 | 23.89° C | 10% | 1016.9 hPa | 0 mm | - | 547 W/m² | - |
| 1777416522 | 23.89° C | 10% | 1017.2 hPa | 0 mm | - | 540 W/m² | - |
| 1777416218 | 22.78° C | 10% | 1016.9 hPa | 0 mm | - | 541 W/m² | - |
| 1777415917 | 23.33° C | 10% | 1017.2 hPa | 0 mm | - | 557 W/m² | - |
| 1777415614 | 23.33° C | 10% | 1016.9 hPa | 0 mm | - | 549 W/m² | - |
| 1777415309 | 23.89° C | 10% | 1017 hPa | 0 mm | - | 503 W/m² | - |
| 1777415005 | 23.33° C | 10% | 1017.5 hPa | 0 mm | - | 481 W/m² | - |
| 1777414703 | 23.33° C | 10% | 1017.2 hPa | 0 mm | - | 518 W/m² | - |
| 1777414400 | 23.33° C | 10% | 1017.6 hPa | 0 mm | - | 296 W/m² | - |
| 1777414099 | 23.89° C | 10% | 1017.5 hPa | 0 mm | - | 579 W/m² | - |
| 1777413794 | 23.89° C | 10% | 1017.6 hPa | 0 mm | - | 512 W/m² | - |
| 1777413489 | 22.78° C | 10% | 1017.6 hPa | 0 mm | - | 563 W/m² | - |
| 1777413186 | 23.33° C | 10% | 1017.9 hPa | 0 mm | - | 583 W/m² | - |
| 1777412881 | 23.33° C | 10% | 1018.1 hPa | 0 mm | - | 574 W/m² | - |
| 1777412575 | 23.33° C | 10% | 1018 hPa | 0 mm | - | 558 W/m² | - |
| 1777412273 | 23.33° C | 10% | 1018.3 hPa | 0 mm | - | 603 W/m² | - |
| 1777411969 | 22.78° C | 10% | 1018.2 hPa | 0 mm | - | 653 W/m² | - |
| 1777411668 | 22.78° C | 10% | 1018.4 hPa | 0 mm | - | 704 W/m² | - |
| 1777411363 | 22.78° C | 10% | 1018.4 hPa | 0 mm | - | 649 W/m² | - |
| 1777411062 | 22.78° C | 10% | 1018.5 hPa | 0 mm | - | 734 W/m² | - |
| 1777410758 | 22.78° C | 10% | 1018.4 hPa | 0 mm | - | 799 W/m² | - |
| 1777410456 | 22.22° C | 10% | 1018.4 hPa | 0 mm | - | 817 W/m² | - |
| 1777410156 | 22.78° C | 10% | 1018.4 hPa | 0 mm | - | 800 W/m² | - |
| 1777409851 | 23.33° C | 10% | 1018.5 hPa | 0 mm | - | 818 W/m² | - |
* Rain latest hour (hover to see other rain measurements)
** Current wind speed in m/s (hover to see current wind gust speed)